Location: Valley of Enchantment
(34.2467°N, 117.3048°W)
Time: 03:58:03
(UTC+00:00)

SME Rocket - Pass Details

Date: 10 September 2024
Orbit: 550 x 2641 km, 99.9° (Epoch: 09 October)

Event Time Altitude Azimuth Distance (km) Brightness Sun altitude
Rises 12:53:59 0° 4° (N) 2,770 6.6 -8.1°
Reaches altitude 10° 12:56:11 10° 355° (N) 1,832 5.6 -7.6°
Maximum altitude 12:59:37 36° 288° (WNW) 911 3.5 -6.9°
Drops below altitude 10° 13:03:21 10° 221° (SW) 2,000 5.2 -6.2°
Sets 13:05:51 0° 213° (SSW) 3,070 6.2 -5.6°
